Regional Weather Roundup
Issued by NWS

Home | Current Version | Previous Version | Graphics & Text | Print | Product List | Glossary On
Versions: 1 2 3 4 5 6 7 8 9 10 11 12 13 14 15 16 17 18 19 20 21 22 23 24 25 26 27 28 29 30 31 32 33 34 35 36 37 38 39 40 41 42 43 44 45 46 47 48 49 50
000
ASUS43 KLOT 050012
RWRIL

ILLINOIS REGIONAL WEATHER ROUNDUP
NATIONAL WEATHER SERVICE CHICAGO/ROMEOVILLE IL
700 PM CDT FRI SEP 04 2015

NOTE: "FAIR" INDICATES FEW OR NO CLOUDS BELOW 12,000 FEET WITH NO
SIGNIFICANT WEATHER AND/OR OBSTRUCTIONS TO VISIBILITY.

* THESE STATIONS ARE NOT UNDER NWS QUALITY CONTROL. THEY ALSO MAY NOT
  REPORT WEATHER SUCH AS PRECIPITATION OR FOG.

ILZ001-002-007-009-015-016-024-050100-
NORTHWEST ILLINOIS

CITY           SKY/WX    TMP DP  RH WIND       PRES   REMARKS
MOLINE         FAIR      87  69  54 S3        29.96R HX  91
6HR MIN TEMP:  87; 6HR MAX TEMP:  93;

STERLING*      FAIR     N/A N/A N/A CALM      29.95S
SAVANNA*       FAIR      87  71  59 CALM      29.97R HX  92
$$

ILZ003-004-008-010-011-017-018-050100-
NORTH CENTRAL ILLINOIS

CITY           SKY/WX    TMP DP  RH WIND       PRES   REMARKS
ROCKFORD       FAIR      85  71  63 SE3       30.00S HX  90
6HR MIN TEMP:  84; 6HR MAX TEMP:  90;

FREEPORT*      FAIR      83  74  73 CALM      30.01R HX  89
ROCHELLE*      FAIR      84  73  70 CALM      30.00R HX  90
DE KALB*       MOCLDY    83  73  73 CALM      30.01S HX  88
PERU*          FAIR      88  66  48 CALM      29.99R HX  90
$$

ILZ005-006-012>014-019>023-050100-
NORTHEAST ILLINOIS

CITY           SKY/WX    TMP DP  RH WIND       PRES   REMARKS
CHICAGO-OHARE  FAIR      73  67  81 E10       30.03R
6HR MIN TEMP:  73; 6HR MAX TEMP:  85;

CHICAGO-MIDWAY MOCLDY    76  65  68 E10       30.03R
6HR MIN TEMP:  76; 6HR MAX TEMP:  85;

AURORA         FAIR      82  71  69 E8        30.01R HX  86
6HR MIN TEMP:  82; 6HR MAX TEMP:  90;

LANSING*       MOCLDY    74  67  76 E6        30.03S
JOLIET*        FAIR      82  72  72 E9        30.01R HX  86
WAUKEGAN       CLOUDY    68  67  96 E6        30.04R
6HR MIN TEMP:  68; 6HR MAX TEMP:  75;

DUPAGE AIRPORT FAIR      79  67  66 E10       30.02R HX  81
6HR MIN TEMP:  79; 6HR MAX TEMP:  89;

KANKAKEE*      FAIR      75  69  81 SE3       30.02S
WHEELING       FAIR      72  66  81 E5        30.05R
6HR MIN TEMP:  72; 6HR MAX TEMP:  80;

MORRIS*        FAIR      84  72  67 E3        29.98S HX  90
ROMEOVILLE*    MOCLDY    77  67  71 E10       30.02R
NORTHERLY ISL    N/A     71  67  87 E6          N/A
$$

LMZ740>746-050100-
SOUTHERN LAKE MICHIGAN

STATION/POSITION SKY/WX   TEMP    WIND        PRES    VSBY  WAVE
                          AIR SEA DIR/SP/G                  HT/PER
                          (F)     (DEG/KT/KT) (MB)    (MI)  (FT/S)
SOUTHERN BUOY              67 71   50/  6/  8 1016.6S
WILMETTE HARBOR            71 71  270/  4/  6   N/A           1/ 3
HARRISON CRIB              71     100/  5/  6   N/A
BURNHAM HARBOR             71     100/  6/  9   N/A
CALUMET HARBOR             72      50/  7/ 10   N/A
BURNS HARBOR               73      70/ 10/ 12 1017.6R
MICHIGAN CITY              71      30/ 10/ 11   N/A
MICHIGAN CITY 6N           71 74   60/  8/ 10   N/A           1/ 2
ST. JOSEPH                 71 76   90/  6/  8   N/A           1/ 3
$$

ILZ025>027-034>036-040-047-049-050-058-095>099-050100-
WEST-CENTRAL ILLINOIS

CITY           SKY/WX    TMP DP  RH WIND       PRES   REMARKS
QUINCY         FAIR      88  68  51 S6        29.97S HX  91
GALESBURG*     FAIR      84  72  67 CALM      29.98R HX  89
MACOMB*        FAIR      87  68  52 S3        30.00R HX  90
JACKSONVILLE*  FAIR      87  69  55 CALM      29.98R HX  92
PITTSFIELD*    FAIR      87  70  56 S5        30.00R HX  92
$$

ILZ028>032-037-038-041>044-048-051>054-059>061-050100-
CENTRAL ILLINOIS

CITY           SKY/WX    TMP DP  RH WIND       PRES   REMARKS
PONTIAC        MOCLDY    89  75  63 CALM      30.00S HX  98
BLOOMINGTON    MOCLDY    87  70  57 SE12      30.01R HX  92
DECATUR        FAIR      85  65  51 S7        30.00R HX  86
PEORIA         FAIR      90  70  51 CALM      29.98R HX  95
6HR MIN TEMP:  90; 6HR MAX TEMP:  98;

LACON*         FAIR      85  74  69 CALM      29.97R HX  92
LINCOLN*       FAIR      91  65  41 CALM      29.97R HX  93
SPRINGFIELD    FAIR      88  68  51 S7        29.99R HX  91
6HR MIN TEMP:  88; 6HR MAX TEMP:  96;

TAYLORVILLE    FAIR      86  68  54 S3        30.00R HX  89
$$

ILZ033-039-045-046-055>057-062-063-050100-
EAST-CENTRAL ILLINOIS

CITY           SKY/WX    TMP DP  RH WIND       PRES   REMARKS
CHAMPAIGN      FAIR      81  65  58 SW6       30.01R HX  83
RANTOUL*       CLOUDY    84  72  67 E18       30.00  THUNDER HX  89
MATTOON        FAIR      88  66  48 SW5       30.00R HX  90
PARIS*         FAIR      81  70  69 CALM      30.02R HX  85
$$

ILZ079-100>102-050100-
SOUTHWEST ILLINOIS

CITY           SKY/WX    TMP DP  RH WIND       PRES   REMARKS
ALTON          PTCLDY    84  72  65 CALM      29.99S HX  89
BELLEVILLE     FAIR      86  75  69 CALM      29.98S HX  94
CAHOKIA*       FAIR      88  68  51 S3        29.98S HX  91
SPARTA*        FAIR      87  70  57 CALM      30.01R HX  91
$$

ILZ064>066-069>071-074>076-080>082-084>086-088>090-092>094-050100-
SOUTH-CENTRAL ILLINOIS

CITY           SKY/WX    TMP DP  RH WIND       PRES   REMARKS
CARBONDALE     FAIR      85  71  63 W3        29.99F HX  90
6HR MIN TEMP:  85; 6HR MAX TEMP:  91;

CAIRO*         FAIR      82  79  91 CALM      29.99S HX  91
EFFINGHAM*     FAIR      85  69  59 CALM      30.02R HX  89
MARION         FAIR      86  72  62 CALM      30.01S HX  92
MT. VERNON     FAIR      82  70  65 CALM      30.01R HX  86
CENTRALIA*     FAIR      87  76  69 CALM      30.00R HX  96
SALEM*         FAIR      87  72  61 CALM      30.00R HX  93
METROPOLIS*    FAIR      84  74  73 CALM      30.00R HX  91
$$

ILZ067-068-072-073-078-083-087-091-050100-
SOUTHEAST ILLINOIS

CITY           SKY/WX    TMP DP  RH WIND       PRES   REMARKS
LAWRENCEVILLE  FAIR      88  67  49 SW3       30.00R HX  91
FLORA*         FAIR      88  66  48 W3        30.01R HX  90
FAIRFIELD*     FAIR      83  72  69 CALM      29.99R HX  88
HARRISBURG*    FAIR      87  71  58 CALM      30.00R HX  92
ROBINSON*      FAIR      85  74  70 CALM      30.01R HX  92
CARMI*         FAIR      85  73  66 CALM      29.99S HX  91
$$

ABBREVIATIONS USED IN REMARKS
   TC - TEMPERATURE IN CELSIUS
  WCI - WIND CHILL INDEX
   HX - HEAT INDEX
  VSB - VISIBILITY
$$



USA.gov is the U.S. government's official web portal to all federal, state and local government web resources and services.